Vorticity
4 7 9 8 11 17 20 23 28 40 33 30 31 29 24 21 19 20 20 18 14 16 18 15 14 12 19 19 -12 -21 -14 57 2 -1 -5 1 0 11
9 7 11 13 19 22 24 20 15 15 12 23 21 16 12 14 16 16 17 19 23 19 25 14 19 20 10 15 21 15 19 -36 -24 14 8 -5 15 15
10 15 20 26 28 23 18 15 12 11 9 13 9 6 5 5 6 7 8 9 13 21 22 8 8 28 38 14 5 13 11 15 22 -35 3 10 20 26
20 26 27 20 13 10 8 8 7 8 7 7 10 6 4 3 3 3 4 8 9 8 9 23 15 18 8 25 41 16 17 22 8 -0 -7 8 18 12
24 18 7 6 10 11 10 8 6 5 4 3 3 4 4 4 4 3 2 2 4 7 11 11 12 11 12 11 23 32 8 20 22 16 25 -8 -23 36
8 6 14 18 20 20 20 21 22 21 21 18 14 9 6 4 3 1 1 4 4 6 11 11 13 9 11 16 17 21 15 8 7 14 11 5 13 -31
5 17 21 23 23 24 26 26 25 26 25 26 33 38 40 29 19 11 6 7 13 17 17 18 21 11 7 7 18 15 24 18 19 9 7 15 14 43
18 24 22 20 21 26 18 14 18 23 20 25 37 40 42 35 36 35 29 26 26 26 24 26 23 25 10 9 10 15 9 14 3 18 18 8 9 0
27 24 18 22 20 9 14 12 15 23 22 19 26 32 31 29 31 34 29 26 24 23 28 22 19 28 15 10 8 11 14 18 5 6 8 18 7 16
25 21 23 21 8 11 13 9 18 22 24 22 19 19 20 22 25 28 27 24 21 24 24 26 27 26 19 10 9 9 17 15 29 32 16 17 5 17
19 22 20 10 13 18 13 18 14 13 16 17 19 18 17 20 18 22 23 22 25 25 23 20 26 29 20 11 10 8 11 11 14 10 11 9 8 15
15 17 13 13 16 16 8 16 13 11 18 20 19 22 19 17 20 23 22 22 24 25 20 19 23 24 19 15 10 8 8 9 9 11 12 11 12 12
17 17 16 19 14 14 4 13 16 15 19 20 24 19 17 21 23 22 15 11 19 22 20 20 20 19 20 16 17 12 11 11 11 14 13 15 15 20
16 20 17 18 8 13 9 15 18 17 20 22 24 29 29 17 23 10 4 11 17 20 20 24 23 21 23 18 14 16 16 15 15 16 16 6 21 -2
16 19 21 18 9 11 11 19 17 17 31 34 34 15 15 18 13 16 11 4 11 26 31 29 28 24 17 19 21 21 18 25 22 23 19 29 -0 18
24 20 21 25 18 11 16 19 17 41 39 21 9 11 14 10 9 7 9 21 19 15 21 21 20 20 20 29 30 34 26 18 19 28 16 -14 20 16
26 16 17 26 11 16 21 20 45 15 6 8 7 6 5 20 9 18 24 13 28 7 1 4 10 15 15 26 25 4 8 18 16 14 13 -3 10 16
15 11 27 12 17 23 32 32 6 4 2 -3 -2 21 33 16 21 26 21 6 5 11 19 34 26 22 18 7 8 11 7 9 11 9 -0 2 10 11
22 24 10 17 25 36 18 5 4 -0 -1 11 44 30 25 22 23 2 3 11 11 25 10 13 29 23 19 17 14 15 11 4 21 25 28 24 25 27
18 12 22 27 37 14 7 0 -1 2 35 39 16 23 12 7 5 5 6 26 28 18 14 11 18 21 18 29 23 19 18 19 17 18 16 12 8 6
14 21 31 34 12 6 1 -1 12 48 21 20 17 17 15 14 20 25 28 15 10 9 12 10 6 5 2 4 4 6 6 5 2 1 1 0 -1 1
21 33 33 13 8 -1 1 24 39 16 15 16 18 17 23 20 16 14 10 5 4 6 5 6 5 3 3 4 4 7 10 8 6 10 14 16 15 15
33 35 12 8 1 -2 25 31 10 9 10 8 4 2 2 3 3 3 4 4 5 6 7 12 13 13 12 12 10 10 8 9 10 11 9 9 6 7
Height
5578 5565 5551 5539 5525 5511 5497 5485 5468 5460 5473 5488 5467 5463 5457 5456 5453 5449 5449 5452 5454 5456 5456 5457 5458 5461 5467 5472 5476 5483 5490 5489 5496 5500 5507 5511 5514 5518
5553 5541 5524 5510 5498 5485 5472 5462 5451 5434 5425 5452 5451 5440 5437 5436 5432 5429 5429 5428 5430 5430 5431 5432 5432 5434 5438 5444 5452 5458 5463 5468 5473 5481 5485 5490 5495 5500
5529 5514 5498 5484 5472 5462 5452 5442 5433 5420 5404 5424 5416 5419 5416 5412 5413 5409 5408 5408 5408 5408 5409 5408 5407 5408 5414 5420 5426 5432 5440 5448 5455 5458 5465 5469 5476 5481
5502 5487 5473 5459 5449 5439 5429 5421 5409 5402 5387 5381 5391 5393 5388 5388 5387 5388 5386 5386 5386 5388 5386 5386 5387 5388 5391 5394 5400 5409 5416 5423 5431 5438 5444 5448 5454 5462
5472 5459 5447 5434 5425 5413 5403 5393 5383 5375 5366 5354 5355 5362 5360 5360 5358 5360 5361 5361 5363 5364 5364 5365 5367 5368 5370 5372 5376 5384 5392 5400 5409 5415 5421 5426 5435 5443
5450 5436 5422 5406 5394 5383 5372 5362 5352 5342 5336 5328 5323 5324 5327 5331 5326 5327 5331 5331 5335 5335 5338 5341 5344 5345 5349 5352 5357 5366 5371 5380 5385 5393 5401 5409 5415 5422
5428 5412 5396 5380 5366 5354 5342 5335 5323 5315 5306 5297 5292 5287 5290 5291 5293 5294 5294 5300 5304 5304 5308 5314 5317 5321 5326 5331 5337 5344 5351 5358 5364 5372 5380 5388 5395 5404
5402 5389 5374 5358 5345 5335 5324 5313 5304 5290 5281 5270 5264 5256 5258 5256 5258 5260 5265 5268 5271 5278 5277 5286 5288 5297 5305 5312 5320 5324 5330 5338 5345 5355 5365 5374 5382 5390
5377 5365 5355 5340 5328 5319 5311 5301 5291 5278 5262 5248 5240 5236 5231 5231 5231 5235 5239 5244 5246 5252 5254 5260 5265 5274 5284 5293 5301 5306 5313 5320 5329 5340 5350 5357 5365 5374
5358 5344 5334 5325 5313 5301 5293 5286 5277 5265 5252 5243 5230 5222 5217 5216 5214 5216 5220 5224 5228 5233 5232 5239 5248 5255 5264 5275 5284 5290 5299 5306 5315 5325 5334 5343 5352 5360
5343 5328 5317 5309 5298 5286 5276 5269 5263 5254 5244 5232 5222 5213 5207 5206 5203 5204 5208 5209 5214 5219 5218 5223 5232 5240 5249 5260 5269 5276 5284 5293 5303 5311 5319 5328 5338 5345
5330 5317 5305 5294 5283 5272 5263 5254 5249 5243 5234 5227 5216 5207 5200 5197 5198 5197 5198 5199 5203 5210 5208 5213 5220 5227 5238 5247 5255 5262 5271 5280 5290 5298 5308 5317 5327 5335
5315 5305 5294 5281 5272 5263 5254 5243 5235 5229 5223 5214 5207 5200 5196 5194 5193 5192 5192 5192 5196 5201 5201 5205 5212 5218 5227 5236 5243 5251 5260 5270 5278 5287 5296 5307 5315 5323
5299 5290 5281 5271 5262 5253 5244 5234 5226 5218 5211 5204 5199 5195 5193 5192 5191 5190 5190 5191 5193 5195 5197 5202 5207 5211 5218 5225 5234 5241 5250 5259 5268 5276 5286 5295 5302 5310
5286 5277 5268 5260 5251 5244 5234 5225 5217 5210 5203 5198 5194 5193 5192 5191 5190 5189 5189 5189 5190 5191 5194 5197 5201 5205 5210 5216 5224 5232 5240 5249 5258 5267 5275 5284 5292 5298
5275 5267 5257 5247 5240 5233 5225 5218 5210 5204 5200 5198 5196 5194 5192 5191 5189 5188 5188 5187 5187 5189 5191 5193 5197 5201 5205 5211 5217 5225 5234 5243 5250 5258 5266 5275 5281 5288
5263 5255 5247 5239 5234 5226 5219 5213 5208 5205 5202 5198 5196 5194 5191 5188 5186 5185 5185 5186 5187 5189 5191 5194 5197 5200 5204 5208 5214 5222 5230 5238 5244 5252 5260 5267 5273 5279
5254 5246 5239 5232 5226 5221 5216 5212 5209 5206 5202 5198 5194 5189 5186 5185 5184 5185 5186 5187 5189 5190 5190 5191 5194 5198 5203 5209 5215 5221 5227 5234 5241 5247 5254 5260 5265 5272
5246 5239 5233 5227 5222 5218 5215 5213 5210 5206 5201 5194 5189 5187 5186 5186 5187 5188 5189 5189 5190 5190 5191 5192 5195 5199 5203 5208 5213 5218 5224 5230 5235 5240 5246 5252 5258 5265
5240 5235 5229 5224 5221 5218 5217 5214 5210 5205 5198 5193 5191 5190 5190 5190 5191 5191 5190 5189 5190 5192 5193 5195 5198 5201 5204 5207 5211 5215 5220 5226 5231 5236 5242 5248 5254 5260
5238 5232 5227 5224 5222 5220 5217 5214 5208 5203 5199 5196 5194 5193 5193 5192 5192 5191 5191 5192 5194 5195 5198 5200 5203 5205 5208 5211 5214 5218 5222 5226 5230 5235 5239 5244 5249 5254
5235 5231 5227 5225 5224 5222 5219 5214 5210 5207 5204 5201 5200 5199 5197 5196 5195 5195 5196 5197 5198 5200 5201 5203 5205 5207 5210 5212 5215 5218 5221 5223 5226 5229 5232 5236 5241 5244
5234 5231 5229 5228 5226 5223 5219 5216 5214 5212 5209 5207 5204 5203 5202 5201 5200 5201 5201 5201 5201 5202 5202 5203 5204 5205 5206 5208 5210 5212 5215 5217 5219 5222 5225 5229 5232 5235